Home   Weather   Boa Vista   Past weeks
Flag for Brazil

Past Weather in Boa Vista, Roraima, Brazil — Yesterday and Last 2 Weeks

Now
79 °F

Clear.


Feels Like: 81 °F
Forecast: 93 / 76 °F
Wind: 3 mph from Southeast

Location: Boa Vista Aeropor-To

Current Time: Oct 14, 2019 at 4:47:03 am

Latest Report: Oct 14, 2019 at 4:00 am


Visibility: 10 mi

Pressure: 29.83 "Hg

Humidity: 74%

Dew Point: 70 °F

Location of Boa VistaLocation

Past Weather in Boa Vista — Graph

°F

Boa Vista Temperature Yesterday

Maximum temperature yesterday: 93 °F (at 2:00 pm)
Minimum temperature yesterday: 77 °F (at 5:00 am)
Average temperature yesterday: 85 °F

High & Low Weather Summary for the Past Weeks

 TemperatureHumidityPressure
High95 °F (Oct 6, 4:00 pm)94% (Sep 29, 3:00 am)29.95 "Hg (Sep 29, 3:00 am)
Low73 °F (Sep 29, 3:00 am)39% (Oct 2, 2:00 pm)29.71 "Hg (Sep 30, 6:00 pm)
Average84 °F66%29.83 "Hg
* Reported Sep 29 3:00 am — Oct 14 3:00 am, Boa Vista. Weather by CustomWeather, © 2019

Note: Actual official high and low records may vary slightly from our data, if they occured in-between our weather recording intervals... More about our weather records

Advertising

Boa Vista Weather History for the Previous 24 Hours

Scroll right to see more
 ConditionsComfort  
Time TempWeatherWind HumidityBarometerVisibility
3:00 am
Mon, Oct 14
77 °FClear.6 mph79%29.83 "Hg10 mi
2:00 am77 °FClear.9 mph79%29.83 "Hg10 mi
1:00 am79 °FClear.8 mph74%29.83 "Hg10 mi
12:00 am81 °FClear.10 mph74%29.86 "Hg10 mi
11:00 pm
Sun, Oct 13
82 °FClear.8 mph70%29.86 "Hg10 mi
10:00 pm82 °FClear.5 mph74%29.83 "Hg10 mi
9:00 pm84 °FPassing clouds.7 mph66%29.83 "HgN/A
8:00 pm86 °FPassing clouds.5 mph62%29.80 "HgN/A
7:00 pm88 °FPassing clouds.5 mph55%29.77 "HgN/A
6:00 pm90 °FPassing clouds.8 mph49%29.77 "HgN/A
5:00 pm91 °FScattered clouds.7 mph46%29.74 "HgN/A
4:00 pm93 °FScattered clouds.9 mph44%29.74 "HgN/A
3:00 pm91 °FScattered clouds.9 mph46%29.77 "HgN/A
2:00 pm93 °FPartly sunny.12 mph47%29.80 "HgN/A
1:00 pm91 °FPartly sunny.12 mph49%29.83 "HgN/A
12:00 pm90 °FScattered clouds.10 mph52%29.86 "HgN/A
11:00 am90 °FPassing clouds.15 mph49%29.89 "HgN/A
10:00 am90 °FPassing clouds.14 mph52%29.92 "HgN/A
9:00 am84 °FSunny.13 mph58%29.92 "Hg10 mi
8:00 am82 °FSunny.10 mph62%29.92 "Hg10 mi
7:00 am79 °FSunny.9 mph74%29.89 "Hg10 mi
6:00 am77 °FSunny.6 mph79%29.86 "Hg10 mi
5:00 am77 °FClear.6 mph83%29.86 "Hg10 mi
4:00 am79 °FClear.5 mph79%29.83 "Hg10 mi
Weather by CustomWeather, © 2019

See weather overview